Date,TemperatureHighF,TemperatureAvgF,TemperatureLowF,DewpointHighF,DewpointAvgF,DewpointLowF,HumidityHigh,HumidityAvg,HumidityLow,PressureMaxIn,PressureMinIn,WindSpeedMaxMPH,WindSpeedAvgMPH,GustSpeedMaxMPH,PrecipitationSumIn
2013-3-1,34.1,30.8,27.4,29.8,25.9,22.8,91,82,67,30.03,29.86,18,4,18,0.01
2013-3-2,30.1,26.8,25.1,23.5,22.0,20.5,88,82,71,30.02,29.96,14,3,14,0.00
2013-3-3,28.4,25.5,23.0,24.2,20.0,17.4,96,80,67,30.09,29.99,14,3,15,0.01
2013-3-4,37.9,28.7,22.7,21.9,18.2,14.5,86,65,48,30.20,30.08,18,2,18,0.00
2013-3-5,49.1,35.5,22.0,30.0,21.3,17.1,94,60,30,30.15,29.69,17,1,17,0.00
2013-3-6,40.0,35.0,31.1,33.1,30.2,28.3,93,83,68,30.15,29.68,13,1,13,0.30
2013-3-7,39.6,35.1,32.7,32.7,30.4,26.9,89,83,68,30.33,30.14,16,3,16,0.01
2013-3-8,36.3,32.9,28.4,28.1,26.2,23.6,84,76,69,30.47,30.32,20,5,20,0.00
2013-3-9,59.2,39.2,21.6,33.4,26.2,19.0,92,64,31,30.47,30.22,7,0,7,0.00
2013-3-10,71.9,54.7,38.7,35.9,30.2,23.9,75,41,23,30.22,30.00,12,2,15,0.00
2013-3-11,64.7,58.5,52.5,49.2,35.9,30.2,88,44,28,30.03,29.71,26,4,26,0.07
2013-3-12,52.5,40.1,36.5,49.5,34.4,28.6,90,80,71,30.05,29.75,14,3,14,0.03
2013-3-13,37.1,32.0,27.6,30.6,26.2,18.8,92,79,54,30.20,29.97,26,3,26,0.05
2013-3-14,40.2,30.9,24.7,23.6,19.5,16.6,80,63,45,30.30,30.18,19,3,20,0.00
2013-3-15,51.4,39.3,28.3,35.3,26.8,18.2,68,61,50,30.20,29.85,19,3,19,0.00
2013-3-16,46.9,42.3,35.7,43.8,38.9,31.9,93,88,68,29.99,29.63,16,2,17,0.02
2013-3-17,37.3,34.0,29.9,31.9,25.4,22.6,86,71,57,30.23,29.99,11,2,11,0.00
2013-3-18,45.4,37.5,32.6,39.2,32.5,24.0,92,82,68,30.18,29.73,17,3,17,0.51
2013-3-19,46.6,40.6,31.1,44.3,28.2,12.4,92,64,28,30.02,29.73,27,6,27,0.03
2013-3-20,41.7,33.6,27.9,21.3,17.8,15.3,65,52,40,30.03,29.84,21,4,22,0.00
2013-3-21,28.2,24.6,19.0,19.5,14.0,8.4,86,65,48,30.00,29.91,18,4,21,0.00
2013-3-22,38.7,30.1,24.5,21.9,18.9,16.4,76,63,47,30.08,29.98,18,4,18,0.00
2013-3-23,47.4,34.3,21.3,26.2,21.5,17.2,86,62,36,30.10,30.01,16,2,16,0.00
2013-3-24,42.9,33.6,27.8,29.9,24.1,20.7,91,69,45,30.04,29.55,10,1,10,0.00
2013-3-25,36.2,33.2,31.1,33.4,30.9,28.9,93,91,86,29.77,29.48,10,1,10,0.46
2013-3-26,41.2,35.4,32.1,32.4,30.5,28.8,93,83,65,30.13,29.77,21,4,21,0.17
2013-3-27,42.2,36.5,31.8,31.3,28.0,24.8,88,72,52,30.22,30.11,18,3,18,0.00
2013-3-28,43.2,38.4,34.4,30.2,28.6,26.9,78,68,55,30.31,30.18,15,3,15,0.00
2013-3-29,51.2,40.0,36.5,31.9,29.1,24.1,78,66,37,30.31,30.19,9,1,14,0.00
2013-3-30,55.8,42.8,26.9,30.0,23.8,20.1,87,51,27,30.30,30.05,8,1,10,0.00
2013-3-31,49.2,45.0,37.5,46.1,37.4,21.4,91,76,43,30.05,29.76,6,2,13,0.12